This is the latest recevied weather packets stored in our database for station/object NorthRyde. If no packets are shown the sender has not sent any weather packets the latest 10 day(s).
| Time | Temp. | Humidity | Pressure | Rain* | Wind** | Luminosity | Snow |
|---|---|---|---|---|---|---|---|
| 1778114678 | 17.78° C | 53% | 1015 hPa | 0 mm | - | 46 W/m² | - |
| 1778114621 | 17.78° C | 55% | 1015.1 hPa | 0 mm | - | 54 W/m² | - |
| 1778114558 | 18.33° C | 55% | 1015 hPa | 0 mm | - | 70 W/m² | - |
| 1778114499 | 18.33° C | 55% | 1014.9 hPa | 0 mm | - | 84 W/m² | - |
| 1778114438 | 18.33° C | 55% | 1014.7 hPa | 0 mm | - | 95 W/m² | - |
| 1778114376 | 18.33° C | 55% | 1014.7 hPa | 0 mm | - | 98 W/m² | - |
| 1778114318 | 18.33° C | 55% | 1014.8 hPa | 0 mm | - | 98 W/m² | - |
| 1778114257 | 18.33° C | 54% | 1014.8 hPa | 0 mm | - | 109 W/m² | - |
| 1778114197 | 18.33° C | 55% | 1014.7 hPa | 0 mm | - | 121 W/m² | - |
| 1778114139 | 18.33° C | 54% | 1014.8 hPa | 0 mm | - | 132 W/m² | - |
| 1778114078 | 18.33° C | 54% | 1014.7 hPa | 0 mm | - | 141 W/m² | - |
| 1778114018 | 18.33° C | 54% | 1014.7 hPa | 0 mm | - | 148 W/m² | - |
| 1778113957 | 18.33° C | 55% | 1014.8 hPa | 0 mm | - | 171 W/m² | - |
| 1778113902 | 18.33° C | 55% | 1014.7 hPa | 0 mm | - | 385 W/m² | - |
| 1778113872 | 18.33° C | 55% | 1014.8 hPa | 0 mm | - | 385 W/m² | - |
| 1778113822 | 18.33° C | 57% | 1014.7 hPa | 0 mm | - | 290 W/m² | - |
| 1778113797 | 18.33° C | 56% | 1014.6 hPa | 0 mm | - | 700 W/m² | - |
| 1778113771 | 18.33° C | 57% | 1014.6 hPa | 0 mm | - | 700 W/m² | - |
| 1778113598 | 18.33° C | 57% | 1014.7 hPa | 0 mm | - | 731 W/m² | - |
| 1778113540 | 18.33° C | 56% | 1014.7 hPa | 0 mm | - | 731 W/m² | - |
| 1778113478 | 18.33° C | 57% | 1014.6 hPa | 0 mm | - | 724 W/m² | - |
| 1778113417 | 18.33° C | 57% | 1014.6 hPa | 0 mm | - | 714 W/m² | - |
| 1778113357 | 17.78° C | 57% | 1014.6 hPa | 0 mm | - | 682 W/m² | - |
| 1778113301 | 17.78° C | 58% | 1014.5 hPa | 0 mm | - | 650 W/m² | - |
| 1778113249 | 17.78° C | 58% | 1014.6 hPa | 0 mm | - | 598 W/m² | - |
* Rain latest hour (hover to see other rain measurements)
** Current wind speed in m/s (hover to see current wind gust speed)